Regional Weather Roundup
Issued by NWS

Home | Current Version | Previous Version | Text Only | Print | Product List | Glossary Off
Versions: 1 2 3 4 5 6 7 8 9 10 11 12 13 14 15 16 17 18 19 20 21 22 23 24 25 26 27 28 29 30 31 32 33 34 35 36 37 38 39 40 41 42 43 44 45 46 47 48 49 50

866
ASUS44 KOUN 302310
RWROK

WEATHER ROUNDUP FOR OKLAHOMA
NATIONAL WEATHER SERVICE NORMAN OK
600 PM CDT FRI SEP 30 2016

NOTE: "FAIR" INDICATES FEW OR NO CLOUDS BELOW 12,000 FEET WITH NO
      SIGNIFICANT WEATHER AND/OR OBSTRUCTIONS TO VISIBILITY.

OKZ001>007-009>012-014-015-017-010000-
NORTHWEST OKLAHOMA AND THE PANHANDLE

CITY           SKY/WX    TMP DP  RH WIND       PRES   REMARKS
GAGE           SUNNY     75  49  39 S10       30.11F
GUYMON         CLOUDY    75  49  39 SE16G23   30.06F
$$

OKZ016-021>023-033>039-044-045-010000-
SOUTHWEST OKLAHOMA

CITY           SKY/WX    TMP DP  RH WIND       PRES   REMARKS
LAWTON/REGL    SUNNY     74  50  42 S6        30.12S
LAWTON/FT SILL SUNNY     74  51  44 SW2       30.10F
FREDERICK      SUNNY     78  50  37 CALM      30.09F
CLINTON        SUNNY     74  49  41 S8        30.14F
HOBART         SUNNY     75  49  39 S6        30.12F
ALTUS AFB      SUNNY     76  47  35 S7        30.11F
$$

OKZ018>020-024>031-010000-
CENTRAL OKLAHOMA

CITY           SKY/WX    TMP DP  RH WIND       PRES   REMARKS
OKLAHOMA CITY  MOSUNNY   74  43  32 CALM      30.12S
OKC/WILEY POST SUNNY     76  45  33 CALM      30.12F
OKC/TINKER AFB SUNNY     75  44  32 VRB2      30.11S
STILLWATER     SUNNY     76  46  34 E5        30.12S
GUTHRIE        SUNNY     75  48  38 CALM      30.12S
$$

OKZ008-013-054>072-010000-
NORTHEAST OKLAHOMA

CITY           SKY/WX    TMP DP  RH WIND       PRES   REMARKS
TULSA          CLOUDY    77  47  34 CALM      30.09S
TULSA/JONES    SUNNY     76  48  37 N3        30.10S
PONCA CITY     MOSUNNY   73  44  35 E5        30.11F
BARTLESVILLE   SUNNY     74  48  39 N6        30.11F
MUSKOGEE       SUNNY     79  46  31 NE6       30.10S
$$

OKZ032-040>043-046>053-073>077-010000-
SOUTH CENTRAL/SOUTHEAST OKLAHOMA

CITY           SKY/WX    TMP DP  RH WIND       PRES   REMARKS
ARDMORE/DWNTWN SUNNY     75  43  31 CALM      30.10S
MCALESTER      SUNNY     79  47  32 VRB3      30.10F
$$





USA.gov is the U.S. government's official web portal to all federal, state and local government web resources and services.